Overview Statistics Trail Chart Weather Telemetry Raw packets
 

This is the latest recevied weather packets stored in our database for station/object LU3HGB-WX. If no packets are shown the sender has not sent any weather packets the latest 10 day(s).

<< 33 34 35 36 37 38 39 >>
Time Temp. Humidity Pressure Rain* Wind** Luminosity Snow
1788454961 17.78° C 42% 1017 hPa 0 mm - 466 W/m² -
1788454660 17.22° C 41% 1017 hPa 0 mm - 413 W/m² -
1788454360 17.22° C 41% 1016 hPa 0 mm - 566 W/m² -
1788454059 17.22° C 40% 1017 hPa 0 mm - 445 W/m² -
1788453759 17.22° C 41% 1017 hPa 0 mm - 529 W/m² -
1788453462 17.22° C 42% 1017 hPa 0 mm - 442 W/m² -
1788453159 17.22° C 43% 1017 hPa 0 mm - 425 W/m² -
1788452860 17.22° C 43% 1017 hPa 0 mm - 479 W/m² -
1788452560 17.22° C 44% 1017 hPa 0 mm - 430 W/m² -
1788452261 17.22° C 44% 1017 hPa 0 mm - 553 W/m² -
1788451960 16.67° C 42% 1017 hPa 0 mm - 397 W/m² -
1788451660 16.67° C 43% 1017 hPa 0 mm - 445 W/m² -
1788451359 16.11° C 42% 1017 hPa 0 mm - 479 W/m² -
1788451061 16.11° C 45% 1017 hPa 0 mm - 423 W/m² -
1788450759 16.11° C 46% 1017 hPa 0 mm - 364 W/m² -
1788450460 16.11° C 46% 1017 hPa 0 mm - 339 W/m² -
1788450159 16.11° C 45% 1017 hPa 0 mm - 316 W/m² -
1788449860 16.11° C 46% 1017 hPa 0 mm - 282 W/m² -
1788449559 16.11° C 44% 1017 hPa 0 mm - 307 W/m² -
1788449260 16.11° C 45% 1017 hPa 0 mm - 365 W/m² -
1788448961 15.56° C 46% 1017 hPa 0 mm - 418 W/m² -
1788448672 15.56° C 50% 1017 hPa 0 mm - 364 W/m² -
1788448359 15° C 50% 1017 hPa 0 mm - 418 W/m² -
1788448059 15° C 52% 1017 hPa 0 mm - 362 W/m² -
1788447759 15° C 53% 1017 hPa 0 mm - 294 W/m² -

* Rain latest hour (hover to see other rain measurements)
** Current wind speed in m/s (hover to see current wind gust speed)